Change the Weather History Date:

Sunday, December 15, 2013

  Actual Average Record
Temperature  
Mean Temperature 38 °F -  
Max Temperature 44 °F 37 °F 50 °F (2002)
Min Temperature 33 °F 28 °F 10 °F (2008)
Degree Days  
Heating Degree Days 27    
Moisture  
Dew Point 33 °F    
Average Humidity 94    
Maximum Humidity 100    
Minimum Humidity 74    
Precipitation  
Precipitation 0.00 in - - ()
Sea Level Pressure  
Sea Level Pressure 30.45 in    
Wind  
Wind Speed 1 mph (NNW)    
Max Wind Speed 5 mph    
Max Gust Speed -    
Averages and records for this station are not official NWS values.
T = Trace of Precipitation, MM = Missing Value Source: NWS Daily Summary

Daily Weather History Graph

Daily Weather History Graph

Search for Another Location

Airport or City:

Trip Planner

Search our weather history database for the weather conditions in past years. The results will help you decide how hot, cold, wet, or windy it might be!

Date:

Astronomy

Dec. 15, 2013 Rise Set
Actual Time 8:18 AM MST 4:57 PM MST
Civil Twilight 7:43 AM MST 5:31 PM MST
Nautical Twilight 7:05 AM MST 6:09 PM MST
Astronomical Twilight 6:29 AM MST 6:46 PM MST
Moon 4:08 PM MST (12/15) 6:34 AM MST (12/15)
Length of Visible Light 9h 48m
Length of Day
8h 38m
Waxing Gibbous, 98% of the Moon is Illuminated
Dec 15
Waxing Gibbous
Dec 17
Full
Dec 25
Last Quarter
Jan 1
New
Jan 7
First Quarter

Hourly Weather History & Observations

Time (MST) Temp. Windchill Dew Point Humidity Pressure Visibility Wind Dir Wind Speed Gust Speed Precip Events Conditions
12:52 AM 33.1 °F - 32.0 °F 96% 30.51 in - Calm Calm - N/A   Unknown
1:52 AM 33.1 °F - 32.0 °F 96% 30.49 in - Calm Calm - N/A   Unknown
2:52 AM 33.1 °F - 32.0 °F 96% 30.48 in - Calm Calm - N/A   Unknown
3:52 AM 33.1 °F - 32.0 °F 96% 30.48 in - Calm Calm - N/A   Unknown
4:52 AM 33.1 °F - 32.0 °F 96% 30.47 in - Calm Calm - N/A   Unknown
5:52 AM 33.1 °F 30.0 °F 32.0 °F 96% 30.47 in - Variable 3.5 mph - N/A   Unknown
6:52 AM 33.1 °F - 32.0 °F 96% 30.46 in - Calm Calm - N/A   Unknown
7:52 AM 33.1 °F - 32.0 °F 96% 30.45 in - Calm Calm - N/A   Unknown
8:52 AM 34.0 °F 31.0 °F 32.0 °F 92% 30.46 in - NNW 3.5 mph - N/A   Unknown
9:52 AM 34.0 °F 29.8 °F 32.0 °F 92% 30.48 in - North 4.6 mph - N/A   Unknown
10:52 AM 35.1 °F - 33.1 °F 92% 30.47 in - Calm Calm - N/A   Unknown
11:52 AM 36.0 °F - 34.0 °F 93% 30.46 in - Calm Calm - N/A   Unknown
12:52 PM 37.0 °F 34.5 °F 35.1 °F 93% 30.44 in - NNW 3.5 mph - N/A   Unknown
1:52 PM 43.0 °F 40.3 °F 35.1 °F 74% 30.40 in - North 4.6 mph - N/A   Unknown
2:52 PM 37.9 °F - 35.1 °F 89% 30.40 in - Calm Calm - N/A   Unknown
3:52 PM 36.0 °F - 34.0 °F 93% 30.41 in - Calm Calm - N/A   Unknown
4:52 PM 35.1 °F - 34.0 °F 96% 30.43 in - Calm Calm - N/A   Unknown
5:52 PM 34.0 °F - 33.1 °F 96% 30.42 in - Calm Calm - N/A   Unknown
6:52 PM 34.0 °F - 33.1 °F 96% 30.43 in - Calm Calm - N/A   Unknown
7:52 PM 33.1 °F - 32.0 °F 96% 30.44 in - Calm Calm - N/A   Unknown
8:52 PM 33.1 °F - 30.9 °F 92% 30.44 in - Calm Calm - N/A   Unknown
9:52 PM 33.1 °F - 33.1 °F 100% 30.44 in - Calm Calm - N/A   Unknown
10:52 PM 33.1 °F - 32.0 °F 96% 30.46 in - Calm Calm - N/A   Unknown
11:52 PM 33.1 °F - 32.0 °F 96% 30.47 in - Calm Calm - N/A   Unknown